Reading, PA

9:41 PM EST on February 13, 2016 (GMT -0500)
Reading Regional-Spaatz

Weather History for KRDG - January, 2013

Change the Weather History Date:

Friday, January 4, 2013

  Actual Average Record
Temperature  
Mean Temperature 36 °F 30 °F  
Max Temperature 39 °F 38 °F 67 °F (1950)
Min Temperature 32 °F 23 °F -5 °F (1981)
Degree Days  
Heating Degree Days 29 35  
Month to date heating degree days 134 139  
Since 1 July heating degree days 1971 2170  
Cooling Degree Days 0 0  
Month to date cooling degree days 0 0  
Year to date cooling degree days 0 0  
Moisture  
Dew Point 21 °F    
Average Humidity 57    
Maximum Humidity 61    
Minimum Humidity 52    
Precipitation  
Precipitation 0.00 in 0.11 in 1.64 in (1982)
Month to date precipitation 0.00 0.46  
Year to date precipitation 0.00 0.46  
Sea Level Pressure  
Sea Level Pressure 30.10 in    
Wind  
Wind Speed 10 mph (West)    
Max Wind Speed 22 mph    
Max Gust Speed 28 mph    
Visibility 10 miles    
Events      
T = Trace of Precipitation, MM = Missing Value Source: NWS Daily Summary

Daily Weather History Graph

Daily Weather History Graph

Search for Another Location

Airport or City:

Trip Planner

Search our weather history database for the weather conditions in past years. The results will help you decide how hot, cold, wet, or windy it might be!

Date:

Astronomy

Jan. 04, 2013 Rise Set
Actual Time 7:27 AM EST 4:51 PM EST
Civil Twilight 6:56 AM EST 5:21 PM EST
Nautical Twilight 6:22 AM EST 5:55 PM EST
Astronomical Twilight 5:49 AM EST 6:28 PM EST
Moon No Moon Rise 11:07 AM EST (1/4)
Length of Visible Light 10h 25m
Length of Day
9h 24m
Waning Gibbous, 55% of the Moon is Illuminated
Jan 4
Waning Gibbous
Jan 4
Last Quarter
Jan 11
New
Jan 18
First Quarter
Jan 26
Full

Hourly Weather History & Observations

Time (EST) Temp. Windchill Dew Point Humidity Pressure Visibility Wind Dir Wind Speed Gust Speed Precip Events Conditions
12:54 AM 34.0 °F 24.6 °F 19.9 °F 56% 30.11 in 10.0 mi West 13.8 mph - N/A   Partly Cloudy
1:54 AM 34.0 °F 27.2 °F 19.9 °F 56% 30.12 in 10.0 mi West 8.1 mph - N/A   Overcast
2:54 AM 34.0 °F 27.2 °F 21.0 °F 59% 30.13 in 10.0 mi West 8.1 mph - N/A   Overcast
3:54 AM 34.0 °F 26.6 °F 21.0 °F 59% 30.13 in 10.0 mi West 9.2 mph 18.4 mph N/A   Overcast
4:54 AM 34.0 °F 26.0 °F 21.0 °F 59% 30.13 in 10.0 mi West 10.4 mph - N/A   Overcast
5:54 AM 33.1 °F 25.5 °F 21.0 °F 61% 30.14 in 10.0 mi WSW 9.2 mph - N/A   Overcast
6:54 AM 33.1 °F 25.5 °F 21.0 °F 61% 30.14 in 10.0 mi West 9.2 mph 18.4 mph N/A   Overcast
8:54 AM 33.1 °F 24.4 °F 19.9 °F 59% 30.15 in 10.0 mi West 11.5 mph 23.0 mph N/A   Overcast
9:54 AM 33.1 °F 24.4 °F 21.9 °F 64% 30.15 in 10.0 mi West 11.5 mph 23.0 mph N/A   Overcast
10:54 AM 36.0 °F 26.3 °F 23.0 °F 59% 30.13 in 10.0 mi West 16.1 mph 24.2 mph N/A   Mostly Cloudy
11:54 AM 35.1 °F 26.4 °F 21.9 °F 59% 30.11 in 10.0 mi West 12.7 mph 23.0 mph N/A   Overcast
12:54 PM 36.0 °F 28.0 °F 21.0 °F 55% 30.08 in 10.0 mi West 11.5 mph - N/A   Overcast
1:54 PM 37.9 °F 30.9 °F 21.9 °F 53% 30.05 in 10.0 mi West 10.4 mph 19.6 mph N/A   Clear
2:54 PM 37.9 °F 28.2 °F 21.0 °F 51% 30.04 in 10.0 mi West 18.4 mph 26.5 mph N/A   Clear
3:54 PM 37.9 °F 30.9 °F 21.0 °F 51% 30.04 in 10.0 mi West 10.4 mph - N/A   Clear
4:54 PM 37.0 °F 28.1 °F 21.0 °F 52% 30.04 in 10.0 mi West 15.0 mph - N/A   Clear
6:54 PM 34.0 °F 27.2 °F 21.0 °F 59% 30.06 in 10.0 mi West 8.1 mph - N/A   Clear
7:54 PM 34.0 °F 28.0 °F 19.9 °F 56% 30.06 in 10.0 mi West 6.9 mph - N/A   Clear
8:54 PM 34.0 °F 28.0 °F 19.9 °F 56% 30.06 in 10.0 mi West 6.9 mph - N/A   Clear
9:54 PM 33.1 °F 24.9 °F 19.9 °F 59% 30.08 in 10.0 mi West 10.4 mph 17.3 mph N/A   Clear
10:54 PM 33.1 °F 25.5 °F 19.0 °F 56% 30.09 in 10.0 mi West 9.2 mph - N/A   Clear
11:54 PM 32.0 °F 27.5 °F 19.0 °F 59% 30.10 in 10.0 mi WNW 4.6 mph - N/A   Clear